星链-3336 (STARLINK-3336 )

导读 | 豆包AI

STARLINK-3336是美国SpaceX公司星链星座的V1.5批次互联网卫星,2022年1月6日由猎鹰9号火箭发射。卫星重约297公斤,运行在约548公里的近地轨道,配备相控阵通信天线与氪离子推进器,可自主完成轨道维持和避碰。它属于星链第一代星座,设计寿命约5年,旨在为全球提供高速低延迟宽带互联网服务,截至2026年3月已在轨超4年,目前仍正常运行,是星链全球覆盖网络的组成部分。

Basic Information
目录编号:
50818
目录名称:
STARLINK-3336
国际标识:
2022-001R
轨道中心:
EARTH
卫星名称:
星链-3336
卫星全名:
星链-3336 (STARLINK-3336 )
卫星状态:
在轨 (已飞行1528 天)
发射日期:
2022-01-06 UTC
国别 :
美国 (US)
星等 :
--
Orbit Information
数据来源 国际轨道数据 AOE轨道数据
星历时间 2026-03-14T22:19:51+0800
9小时前
查看轨道信息
2026-03-14T09:00:00+0800
22小时前
查看轨道信息
半长轴 6917.82km 6917.823km
偏心率 0.0001097 0.0001375
轨道倾角 53.216° 53.215°
近地点辐角 102.849° 76.597°
升交点赤经 147.089° 149.582°
平近点角 257.262° 144.684°
近地点 538.924km 538.734km
远地点 540.442km 540.638km
周期 95.436分钟 95.436分钟
每日圈数 15.0886 15.088589
Detailed Information
固有亮度:
5
最大亮度:
2.5
卫星平台:
Starlink v1.5
覆盖范围:
全球
运营商:
太空探索技术公司
运营商所在国:
美国
制造商(研发单位):
太空探索技术公司
制造商所在国:
美国
使用方式:
暂无
Satellite Introduction
星链(Starlink)计划是由太空探索技术公司(SpaceX)提出的一个巨型低轨卫星互联网星座项目,计划在2019年至2024年间在太空搭建由约1.2万颗卫星组成的“星链”网络,其中1584颗将部署在地球上空550千米处的近地轨道,并从2020年开始工作。该卫星仍在工作。
2D Orbit Map
3D Orbit Map
Orbit Altitude Analysis Chart
Orbit Inclination Analysis Chart
Orbit Comprehensive Analysis Chart
View Comprehensive Chart